Theta_e
352 352 352 351 351 350 349 349 348 349 350 349 350 349 349 349 348 347 346 344 344 344 344 344 346 345 346 346 347 347 347 347 349 351 353 353 352 353 354 353 352 355 356 357 357 356 355 356 357 356 354 355 358 357 357 356 356 357 357 356 356 356 355 358 359 358 359 359 356 356 354 352 354 355 353 354 353 350 351 351 350 353 356 357 359
352 352 351 351 351 350 350 350 349 349 350 350 349 348 349 348 347 347 345 344 344 343 343 343 344 345 345 344 345 345 345 346 347 349 351 352 353 354 354 352 353 355 356 355 356 356 355 355 356 356 353 352 354 355 356 356 356 356 358 358 358 358 357 356 358 359 358 359 359 358 357 355 356 356 354 352 351 350 350 352 354 354 354 356 360
352 352 351 351 351 351 351 351 350 350 350 350 349 348 348 347 347 347 346 345 344 343 343 343 343 344 344 344 344 343 343 344 345 347 348 350 351 354 354 352 352 354 356 355 356 356 355 355 356 357 355 352 351 353 354 355 355 356 357 357 357 358 357 355 356 359 359 359 359 359 358 358 358 356 353 350 351 352 351 352 354 353 354 358 360
351 351 352 352 352 352 352 351 351 350 350 350 349 349 348 347 347 346 346 346 345 344 343 342 342 343 343 343 343 343 343 342 342 344 345 347 348 349 350 349 349 352 353 354 355 355 355 355 356 357 355 354 352 353 353 353 354 356 357 357 356 357 358 357 356 358 359 359 360 360 358 357 356 354 351 351 354 354 351 351 352 351 353 357 359
349 350 351 351 351 351 352 351 351 350 350 350 349 349 348 348 347 346 346 346 345 344 343 342 342 341 341 342 342 342 342 341 341 343 343 344 345 346 346 346 345 345 346 348 349 350 352 353 354 355 355 354 354 356 355 352 353 355 356 358 358 357 357 356 356 357 359 359 359 360 359 357 356 354 351 351 356 357 354 352 351 351 352 355 358
348 349 351 351 351 352 351 351 351 350 350 349 349 349 348 348 347 346 345 346 345 345 344 342 341 340 339 341 341 342 343 341 341 341 342 343 343 345 345 345 344 343 342 342 343 344 345 347 348 351 353 355 355 357 356 353 352 353 354 356 357 357 356 356 357 358 358 360 359 359 359 359 358 357 354 351 354 357 358 356 355 353 352 355 357
347 349 349 350 351 352 352 351 351 351 350 350 349 349 348 348 348 347 346 345 345 345 344 343 341 341 341 341 342 341 342 342 341 340 342 343 342 343 345 345 346 345 342 341 342 343 344 345 347 348 349 350 353 355 356 355 354 353 352 353 356 357 357 358 358 358 359 360 360 359 360 360 360 358 354 351 352 357 360 359 359 357 354 354 356
347 349 350 350 351 352 351 351 352 351 351 349 349 349 348 348 348 347 346 345 344 344 344 343 342 341 342 343 343 342 341 342 341 341 340 342 342 342 343 343 346 347 346 343 342 343 343 344 347 349 348 347 348 351 353 355 355 355 352 351 352 354 357 358 358 360 359 359 359 359 359 360 360 359 357 355 359 361 360 358 359 359 357 356 356
348 349 350 351 351 352 351 351 351 351 351 350 349 348 348 348 347 347 346 346 345 344 344 344 343 342 342 342 342 342 343 342 341 340 340 341 342 342 342 342 344 345 346 345 344 343 341 343 345 346 344 343 343 346 349 351 353 355 355 353 350 352 356 358 359 359 359 359 359 360 360 360 361 361 361 360 361 360 359 358 359 359 358 359 359
349 349 349 350 352 351 351 350 350 351 350 349 349 349 349 349 348 347 346 346 345 345 344 343 344 344 343 343 342 342 343 342 340 339 339 340 340 342 342 341 342 343 344 344 345 345 344 344 344 341 339 338 340 343 345 348 349 351 353 354 352 353 357 359 359 359 359 359 358 359 359 359 359 360 361 361 359 359 359 360 360 359 359 361 361
348 350 350 351 352 352 351 350 350 350 350 349 349 348 348 349 348 347 347 346 345 345 345 344 343 344 344 344 344 344 343 342 339 338 339 340 340 341 342 342 342 342 342 342 343 344 346 346 347 345 342 338 337 338 340 344 347 348 349 351 352 353 356 359 359 360 360 359 359 359 359 358 359 359 359 359 359 359 360 359 359 359 360 361 361
345 349 351 352 352 351 351 350 351 350 350 349 349 348 348 348 348 347 347 346 346 345 346 345 344 344 345 345 345 345 344 342 339 339 339 340 341 341 343 344 344 343 343 343 342 342 345 348 350 351 348 342 339 341 340 340 343 347 348 349 350 351 352 354 356 358 360 360 359 359 359 359 359 360 358 357 358 359 360 359 359 358 360 360 360
343 347 351 354 353 351 350 351 351 350 350 349 349 349 349 349 348 348 348 347 346 346 346 346 345 345 345 345 345 345 344 342 341 340 340 340 341 341 342 343 345 345 344 343 342 342 343 345 348 350 348 344 343 344 345 343 343 346 348 349 351 351 351 351 352 353 356 360 361 360 360 360 359 359 356 354 356 359 359 359 359 359 360 360 360
342 344 348 352 354 354 352 351 352 351 350 349 350 350 350 349 349 350 349 348 347 346 346 346 346 345 345 346 346 345 345 344 342 341 341 341 341 341 342 341 343 344 344 344 343 343 342 342 345 346 346 345 344 343 344 346 347 349 350 350 351 351 350 351 351 351 352 355 358 359 359 359 357 354 353 352 354 357 358 360 360 360 361 361 359
340 342 343 346 350 354 354 353 352 352 352 351 351 351 351 350 350 350 350 350 349 348 347 347 346 345 345 345 346 346 346 344 343 343 341 341 341 341 341 341 341 343 344 343 343 342 341 341 343 344 344 344 344 342 344 348 351 354 354 353 353 353 352 352 351 351 351 351 352 354 355 355 354 352 353 355 355 355 356 356 357 358 359 358 358
336 338 339 341 344 347 351 353 354 353 353 353 353 353 352 351 350 351 351 350 350 349 348 347 347 346 345 345 345 345 345 344 344 342 342 342 341 341 341 341 342 343 344 343 342 341 340 341 343 344 343 342 341 341 342 347 353 357 358 357 357 357 356 354 352 351 351 351 351 352 353 353 353 352 352 355 356 356 355 355 355 356 357 357 358
333 333 334 335 338 341 344 348 352 354 355 355 354 354 354 352 351 351 351 351 350 350 350 349 348 347 347 346 345 345 345 345 344 344 342 341 340 340 341 341 341 342 342 342 342 341 340 340 341 343 343 342 339 340 341 345 351 356 358 358 358 358 358 357 354 351 351 351 351 351 351 351 350 351 351 351 353 354 355 356 357 357 357 358 360
330 330 331 331 333 336 340 342 346 350 354 356 355 354 354 354 353 353 352 351 351 351 350 350 349 349 348 347 347 346 346 346 345 344 344 342 340 340 340 340 340 341 341 341 341 342 340 340 341 342 343 341 339 340 343 345 349 353 357 358 358 358 358 357 356 355 352 351 351 351 351 351 351 351 351 352 352 352 353 355 357 357 357 358 358
327 328 329 329 330 333 337 340 343 345 349 353 356 355 354 354 354 353 353 352 352 351 351 351 350 350 349 349 348 347 346 347 346 346 345 344 342 340 339 340 340 342 342 343 344 344 342 340 341 341 341 340 340 341 344 347 349 352 356 358 358 358 359 358 358 358 357 355 353 352 351 351 351 351 352 352 353 353 353 353 355 357 358 358 357
325 326 327 328 329 331 334 338 341 343 345 348 352 355 355 354 353 354 353 353 352 352 352 351 351 350 350 349 349 348 348 347 347 347 346 345 344 342 340 340 340 342 344 346 347 347 346 343 342 341 340 340 341 342 344 347 349 351 354 357 359 357 358 358 357 357 358 358 357 355 354 354 353 355 354 354 354 354 353 354 355 356 358 358 357
324 325 327 328 328 330 333 337 340 342 344 346 348 352 354 355 354 354 353 353 353 353 352 352 351 352 351 351 351 349 349 349 348 348 347 346 346 344 342 341 341 342 344 346 347 348 349 347 345 342 341 341 341 342 344 347 349 350 353 355 355 355 354 356 357 358 357 358 358 357 357 357 357 357 357 356 356 356 355 355 355 355 358 358 357
324 324 326 327 329 330 332 336 339 341 343 345 347 348 350 354 355 356 355 355 354 354 354 354 353 353 352 352 352 351 351 350 349 349 349 348 347 346 344 343 343 343 346 348 348 348 349 348 346 344 343 343 342 343 345 347 348 350 351 352 352 352 352 354 355 357 358 358 358 358 359 359 358 359 359 359 359 358 357 357 356 355 357 358 357
323 324 326 327 329 330 331 334 338 341 342 344 345 346 349 353 356 357 357 357 357 357 356 356 355 355 355 355 354 353 353 352 351 350 349 349 349 347 347 346 345 345 346 349 349 349 349 349 347 346 344 344 344 345 345 347 349 350 351 351 351 352 352 353 353 355 357 357 357 358 358 359 360 360 360 360 360 360 359 358 357 356 356 357 357
323 324 325 327 329 330 331 333 336 339 341 343 345 347 349 352 356 358 358 358 359 359 359 359 359 358 358 358 357 356 356 356 355 354 352 351 350 349 349 349 347 346 346 348 349 350 350 350 348 346 346 345 345 346 347 348 349 350 351 352 352 352 353 353 353 355 356 357 357 357 357 358 360 360 360 360 359 359 359 358 357 357 357 357 358
323 324 325 327 329 329 330 332 334 336 338 341 344 348 350 352 356 358 359 359 359 361 361 361 360 360 360 360 360 360 359 358 358 356 355 354 353 352 351 350 350 348 346 347 349 350 351 350 349 348 347 347 347 348 349 349 350 351 351 352 352 353 353 352 353 354 355 356 357 357 357 358 359 358 357 357 357 359 359 359 359 358 357 358 358
323 323 325 327 327 329 330 331 333 335 336 338 341 346 350 353 356 358 359 359 360 361 362 362 362 361 361 361 361 361 361 360 360 359 358 356 355 354 353 352 352 350 349 348 349 349 349 350 349 349 348 348 348 349 349 349 350 351 352 352 353 352 352 352 353 354 356 356 357 357 357 358 359 358 358 359 360 360 360 359 359 358 357 357 358
323 323 325 326 327 328 329 331 332 334 335 337 339 343 348 352 354 357 358 359 359 360 361 361 361 361 361 362 362 362 362 362 362 361 360 358 357 355 354 353 353 351 349 349 349 348 348 348 349 349 349 350 350 350 350 351 351 352 352 353 353 353 353 353 353 354 356 357 358 358 359 359 360 360 360 360 360 360 360 358 358 357 356 356 356
322 323 324 325 327 327 329 331 332 334 335 336 338 341 345 349 351 354 356 358 360 360 361 361 362 362 362 362 362 362 363 363 362 362 361 360 359 357 356 355 354 352 351 350 349 349 348 348 349 349 349 350 351 351 351 351 351 352 352 353 353 354 353 353 353 354 355 357 358 358 359 359 360 360 360 360 360 359 358 357 357 356 355 355 355
322 323 323 324 326 327 329 331 332 333 335 336 337 339 343 346 349 351 353 356 359 360 360 361 362 363 363 363 364 364 364 363 361 361 360 359 359 358 357 355 355 354 354 353 350 348 348 349 350 351 351 351 352 353 352 353 353 353 353 353 353 353 354 353 353 354 355 357 357 358 359 359 360 360 359 359 358 357 357 356 356 355 354 354 353
321 323 323 324 325 327 329 330 331 333 335 336 337 339 340 343 346 348 350 352 354 357 358 360 362 362 362 363 363 364 364 362 359 359 360 359 359 358 358 357 356 356 355 353 348 346 347 350 352 353 353 353 354 355 355 355 355 355 355 354 353 354 354 354 354 355 356 356 357 358 358 359 359 359 359 358 358 356 356 356 355 355 354 353 351
321 322 323 323 324 325 327 329 330 332 334 335 337 338 340 342 344 346 347 348 349 351 353 356 358 359 360 361 361 362 362 361 359 359 359 358 359 358 358 357 356 356 355 352 347 345 348 351 352 353 354 355 355 356 356 356 357 357 357 356 356 355 355 355 355 356 355 356 356 357 358 358 358 358 357 357 357 357 355 355 354 354 354 353 351
321 321 322 322 323 324 326 328 330 331 333 335 336 338 340 343 345 345 346 347 348 349 351 353 355 357 358 358 359 360 360 360 360 359 359 359 358 358 358 357 357 356 355 351 347 346 349 352 354 354 354 355 356 355 356 357 358 358 358 358 358 357 356 355 356 355 355 356 356 357 357 357 357 357 357 357 357 357 355 354 353 353 353 352 352
320 321 321 322 323 323 326 328 330 331 333 335 337 339 342 345 346 346 346 347 348 349 351 353 354 356 357 358 358 358 359 359 359 359 359 358 358 358 358 357 357 356 354 351 348 349 351 352 353 355 355 356 356 356 356 357 358 359 358 358 359 358 357 355 355 355 356 356 356 356 356 356 356 356 356 356 356 355 355 354 353 353 353 352 351
320 321 321 322 322 323 326 328 330 332 334 336 338 339 341 343 344 345 346 346 347 349 351 353 356 357 358 358 359 358 358 358 358 358 358 357 358 358 357 356 355 355 353 349 349 351 353 353 354 355 356 356 356 356 357 357 357 358 359 358 358 358 357 357 357 356 355 355 356 355 355 355 355 355 356 356 355 355 355 354 353 353 352 352 350
320 320 321 322 323 325 328 329 332 334 335 336 336 337 337 339 340 341 343 344 345 347 349 352 355 357 358 358 358 359 359 359 358 357 356 356 357 356 355 353 352 350 349 348 348 350 353 354 354 355 355 356 356 356 357 357 357 358 358 358 358 358 358 358 358 357 356 354 354 355 355 355 355 355 355 355 355 355 354 353 352 352 351 351 349
321 321 321 322 323 326 328 330 332 333 334 334 333 334 334 335 336 337 339 340 342 344 346 349 353 356 358 358 358 358 359 359 357 356 355 355 355 355 353 351 350 349 348 348 348 349 352 354 355 356 356 356 356 356 357 357 357 357 357 357 357 358 358 359 357 356 356 355 354 354 354 354 354 354 354 355 354 354 354 353 352 351 350 349 348
321 321 322 322 324 326 328 330 331 331 331 331 330 331 332 333 334 336 338 339 341 342 344 348 352 355 357 359 358 358 358 358 357 355 353 352 351 352 352 353 353 352 351 350 350 350 351 352 354 356 356 356 355 356 357 357 357 356 356 356 356 357 358 358 357 356 355 355 355 355 354 354 354 354 353 354 353 353 353 352 351 350 349 348 347
321 321 322 323 325 327 328 329 329 329 329 329 329 330 331 332 334 336 337 339 341 343 344 347 350 353 356 358 357 357 357 357 355 353 351 349 347 348 350 353 355 355 354 354 353 352 353 353 353 355 356 356 355 356 356 357 357 356 355 355 356 356 356 356 356 356 355 355 355 355 354 354 354 354 353 353 353 352 352 351 350 349 348 346 345
321 322 322 324 326 327 327 327 327 328 328 328 329 329 331 333 334 336 338 340 342 343 345 347 350 352 355 356 356 355 354 353 351 350 349 347 346 347 348 350 354 356 356 356 355 354 353 353 353 353 354 355 355 355 355 357 357 357 356 356 357 358 357 356 356 356 355 354 354 354 354 353 353 353 352 352 352 352 351 351 350 348 347 346 345
321 322 324 325 326 325 325 326 326 326 327 327 328 329 330 331 333 335 337 340 342 344 345 347 350 352 354 355 355 355 354 353 352 352 351 348 346 347 347 349 352 356 357 357 357 356 354 353 353 353 354 354 354 354 355 354 355 356 355 356 358 359 358 358 357 357 356 354 353 353 353 352 352 351 351 351 351 351 350 350 349 347 347 346 345
321 322 324 324 324 324 324 324 325 325 325 326 326 327 328 329 330 332 334 337 340 343 345 347 348 350 351 353 354 354 354 354 354 354 354 352 350 349 349 350 352 355 357 357 357 357 355 354 354 354 353 353 352 352 353 353 353 354 355 355 357 357 356 356 357 357 356 354 351 351 351 351 349 350 350 350 349 349 349 348 348 347 345 345 343
321 322 323 323 323 323 323 323 323 323 323 323 323 324 325 326 328 330 332 334 336 339 342 345 347 348 349 350 351 352 353 354 354 354 354 355 354 353 352 352 352 352 354 356 356 356 355 354 354 353 352 352 352 352 352 352 352 353 354 354 355 355 354 354 355 355 354 352 350 349 350 349 349 349 349 348 348 348 347 346 346 345 343 341 340
321 321 321 321 321 321 321 321 321 320 320 320 321 321 322 324 325 327 329 331 333 335 338 342 345 347 348 349 349 350 351 351 352 352 352 353 354 353 352 352 351 350 350 351 352 352 353 353 353 353 353 352 351 351 350 350 351 351 352 353 353 353 353 352 353 352 352 351 349 349 348 348 347 347 347 347 346 345 344 343 343 342 340 338 337
320 320 319 319 319 319 319 318 318 318 318 318 319 319 320 321 322 323 325 327 330 333 336 339 342 345 347 348 348 349 349 349 349 349 349 350 351 350 349 348 348 347 348 348 348 349 349 350 351 351 351 351 350 349 349 348 348 348 349 350 350 350 351 351 350 350 350 349 348 347 346 346 345 345 345 345 344 343 341 340 340 339 338 336 336
318 317 317 317 316 316 316 316 316 316 316 316 317 317 318 318 319 321 322 324 327 329 332 334 337 340 342 342 341 341 341 341 340 340 339 339 339 340 340 341 341 341 341 343 344 344 345 345 345 346 347 348 348 347 347 346 346 346 347 348 347 346 347 347 348 348 347 346 345 344 344 344 344 343 342 342 340 339 338 338 337 337 336 335 334
316 316 315 315 315 314 314 314 314 315 315 315 315 316 316 316 317 318 319 320 320 322 324 326 328 330 331 331 330 329 329 329 327 326 325 325 325 326 327 329 330 331 332 333 335 337 338 338 338 338 339 341 342 342 342 343 343 344 345 345 345 344 343 343 344 343 342 342 342 342 343 342 341 340 339 338 337 337 336 336 335 334 334 333 332
314 314 314 313 313 313 313 313 313 313 313 314 314 314 314 314 314 315 314 314 314 314 315 316 317 318 319 320 320 320 319 319 318 316 316 315 315 316 317 318 320 321 323 324 326 328 329 329 329 328 329 330 331 333 334 336 337 339 340 342 343 342 340 339 338 338 338 339 340 340 339 337 335 334 333 333 332 333 332 331 331 331 331 331 330
313 313 313 312 312 311 311 312 312 312 312 312 313 312 312 311 311 311 311 310 310 309 309 309 309 310 310 310 310 310 310 310 310 309 309 309 309 309 310 311 312 313 314 315 317 317 318 319 319 319 320 322 323 324 326 327 329 332 334 336 337 337 336 335 335 336 337 338 337 335 334 333 331 330 329 328 328 328 327 326 326 326 326 326 326
312 312 311 311 311 310 310 310 310 311 311 311 311 311 310 309 309 308 308 307 307 307 306 305 305 305 305 305 305 305 305 305 305 304 304 305 305 305 305 305 306 307 308 308 309 310 311 312 312 313 315 316 317 319 320 321 322 324 327 329 330 331 331 332 333 334 334 334 333 331 330 329 327 326 326 325 324 324 323 321 321 321 321 321 321
310 310 310 310 309 309 309 309 309 309 309 309 309 309 308 308 307 306 306 305 305 304 304 303 303 303 303 302 302 302 301 301 301 301 301 301 302 302 303 303 302 303 303 304 304 305 306 307 308 309 310 312 313 314 315 316 317 319 321 323 325 326 327 328 329 329 329 329 328 327 326 325 323 322 321 319 319 318 317 316 316 316 316 316 316
309 308 308 308 308 308 308 308 308 308 308 308 307 307 306 305 304 303 303 303 302 302 301 301 301 301 301 301 300 300 299 299 299 299 299 299 299 300 300 300 300 300 300 301 301 302 302 303 303 304 305 307 309 310 311 312 313 315 317 319 321 322 323 324 324 324 324 324 323 322 322 321 320 318 317 315 314 313 312 311 310 310 309 309 309
Wind_Speed
26 28 29 28 30 34 35 35 35 34 32 32 31 31 30 30 29 27 26 26 26 25 22 20 19 19 17 17 16 16 15 16 16 16 16 15 15 13 13 14 14 13 12 11 11 11 11 11 10 11 12 11 9 8 8 8 7 7 7 7 6 6 5 5 7 10 10 9 9 10 10 12 11 12 15 14 14 17 17 16 14 9 8 8 7
24 26 27 28 30 32 31 32 34 34 32 31 31 31 31 31 30 28 27 27 27 26 25 23 22 20 20 19 18 17 17 16 16 17 17 17 17 15 14 15 15 14 14 14 13 13 13 13 13 12 13 13 12 11 9 8 8 8 8 8 8 8 8 7 7 9 11 9 9 9 9 11 10 11 14 14 14 16 17 15 12 8 7 7 6
20 24 27 28 30 29 27 28 30 32 30 29 29 29 29 30 31 30 28 27 27 28 27 26 24 23 22 22 21 20 19 18 17 18 18 18 18 16 15 16 16 16 15 15 14 14 14 15 14 12 12 13 13 12 11 10 9 9 9 9 9 8 8 9 8 9 11 11 10 9 8 9 11 12 15 14 13 14 15 14 12 8 7 6 5
16 19 23 25 26 25 25 25 26 28 27 26 27 27 25 26 30 31 28 26 27 28 28 27 27 25 24 24 23 22 22 21 20 19 19 18 18 18 17 17 17 17 17 16 15 15 16 16 15 13 13 14 14 13 12 12 11 11 10 10 10 9 9 10 10 10 10 12 11 10 11 13 13 14 15 13 11 12 13 14 12 9 7 6 4
20 20 22 23 23 23 24 25 24 25 26 25 26 26 24 23 27 30 28 26 27 28 28 28 28 27 26 25 24 23 23 22 21 21 20 20 20 19 19 19 19 19 19 18 18 17 18 18 16 15 15 15 14 13 13 13 12 11 11 10 10 10 10 11 11 11 11 12 12 12 13 13 13 14 14 12 11 10 10 12 12 10 8 6 4
24 23 23 24 24 24 24 24 24 25 26 26 25 25 25 24 25 29 29 28 28 28 29 29 30 29 29 28 26 24 23 23 23 22 22 22 22 22 22 21 21 21 21 20 20 20 20 20 19 18 17 16 15 13 13 14 14 13 13 12 10 10 10 11 11 11 11 12 13 13 12 11 11 11 12 12 12 9 7 8 9 9 9 7 3
23 23 24 25 25 25 25 25 25 25 26 27 27 25 25 25 25 26 29 30 29 28 29 30 32 31 31 30 28 27 25 25 25 25 24 24 24 24 24 24 24 23 23 23 22 21 21 21 20 19 19 19 18 16 14 14 14 14 14 14 12 11 11 10 10 10 11 11 12 12 11 10 9 10 11 13 12 8 5 6 5 6 8 8 5
23 22 23 24 24 25 26 25 25 26 27 28 29 27 25 25 25 25 27 30 31 30 30 31 32 33 32 32 31 29 28 27 27 27 27 26 26 26 26 26 25 25 25 25 24 23 23 22 21 21 21 21 20 18 17 15 15 15 15 15 14 13 12 10 10 10 10 11 11 11 10 10 10 10 10 10 8 6 6 7 6 5 6 7 5
24 25 24 25 26 26 25 24 24 27 29 30 32 30 27 27 28 27 29 31 31 30 30 30 31 33 33 33 33 32 31 31 31 30 30 29 29 28 28 28 27 27 27 26 25 25 25 24 23 23 24 23 21 20 19 18 17 16 16 16 16 15 13 12 11 11 10 11 11 10 10 10 9 8 8 7 7 8 9 8 7 6 6 6 5
18 24 26 26 26 27 28 30 29 29 32 33 34 34 30 28 29 31 32 32 31 31 31 30 30 31 32 34 34 33 33 34 34 34 32 32 31 30 30 30 30 29 29 28 27 27 26 26 26 26 26 25 23 22 21 20 19 19 18 18 17 16 14 13 12 12 12 11 11 11 10 10 9 8 8 8 9 9 8 7 7 7 7 6 5
7 15 22 24 25 27 30 33 32 32 34 35 35 35 33 30 30 33 33 32 32 33 32 32 31 29 29 32 33 33 35 37 37 37 35 34 33 32 32 32 32 32 31 31 30 29 27 26 26 26 27 28 26 25 23 22 21 21 20 20 20 18 16 14 14 13 13 13 13 11 11 12 11 10 10 10 9 9 8 7 7 7 7 6 6
7 6 12 18 22 28 30 30 31 33 34 35 35 35 33 31 31 32 32 32 33 33 31 32 34 31 28 29 30 31 35 38 39 38 37 37 35 34 33 32 32 32 32 32 32 30 28 26 24 23 25 28 28 25 24 23 22 22 21 21 21 21 20 19 17 16 14 14 14 13 13 13 12 11 11 10 10 9 8 8 8 8 8 7 7
8 7 6 10 17 26 29 28 30 32 33 34 35 34 33 32 32 31 31 30 31 33 33 33 35 33 30 29 30 30 32 37 40 39 38 38 37 36 35 34 33 32 32 33 32 31 31 29 26 24 26 29 28 27 26 26 25 24 23 22 22 22 22 22 22 21 18 16 15 15 15 14 13 14 13 13 13 11 9 9 9 9 9 9 9
10 10 8 6 9 19 26 27 28 30 33 34 33 32 32 33 33 29 27 27 29 34 35 32 33 36 34 33 33 32 31 35 39 39 39 39 38 37 36 37 36 34 33 33 33 33 33 32 30 29 29 30 30 29 28 27 26 26 25 24 24 24 23 23 23 23 23 22 21 20 19 17 18 19 18 17 16 14 12 11 10 10 10 10 11
12 12 11 9 6 8 18 25 27 28 31 32 31 32 32 34 33 29 25 24 28 34 34 30 32 36 37 35 34 32 33 36 38 38 39 38 38 37 36 37 38 37 36 36 36 35 35 34 32 32 31 32 32 31 28 26 25 24 23 24 24 24 24 24 23 22 22 24 24 24 23 21 21 20 18 17 17 17 16 15 13 12 11 11 12
13 14 14 12 10 7 7 15 22 26 27 27 28 29 31 34 36 32 27 24 24 28 30 30 30 33 35 34 32 32 35 37 37 39 39 38 37 36 36 37 38 38 38 38 38 38 37 35 34 33 33 34 33 32 30 27 24 21 21 21 21 21 22 24 24 23 21 21 22 23 22 21 20 19 17 16 16 16 15 14 13 11 10 10 11
13 15 15 15 14 12 10 9 11 17 22 24 26 28 29 33 34 30 27 25 24 24 26 28 29 30 31 32 34 36 39 39 39 39 39 38 36 36 37 38 39 39 39 39 39 39 38 38 36 35 34 35 34 33 31 29 26 23 21 20 20 20 20 21 22 23 23 22 21 21 21 20 19 19 18 17 17 16 14 12 11 10 10 10 11
15 15 16 17 18 15 12 10 10 11 15 20 25 27 27 28 28 26 26 26 26 25 25 25 27 27 28 31 34 37 39 39 39 39 39 38 37 37 38 38 38 39 40 40 40 40 39 39 37 36 36 36 34 33 32 30 29 27 23 21 20 20 21 20 19 20 21 22 22 21 21 21 19 19 18 16 16 17 17 16 13 11 11 12 11
15 17 18 19 19 18 15 12 11 10 12 16 21 25 25 24 23 23 24 25 26 25 24 23 24 26 27 29 33 36 35 35 36 38 38 38 37 38 38 38 38 38 38 37 36 37 40 40 39 38 39 37 35 34 33 31 31 30 25 21 21 22 22 20 18 17 17 19 21 22 21 20 19 18 18 16 16 17 18 18 16 13 12 13 12
16 17 19 19 19 18 17 15 12 11 12 13 16 20 24 25 23 22 23 24 25 24 24 24 24 25 26 27 29 32 33 32 33 36 38 37 37 38 38 38 39 39 36 32 30 30 34 39 40 40 39 39 36 35 35 34 33 32 28 23 22 24 23 21 20 20 18 17 18 20 20 20 19 18 18 18 18 18 18 18 17 15 14 14 13
18 17 18 19 19 19 18 16 14 13 12 12 14 16 19 22 23 23 23 24 24 24 24 25 25 26 26 26 27 29 31 32 33 35 37 37 37 37 38 40 41 40 35 31 29 27 29 35 40 41 40 39 37 36 36 36 35 34 32 29 29 29 27 24 22 21 19 17 17 17 17 17 17 17 17 17 17 18 18 18 18 17 17 16 15
19 19 18 19 20 21 20 17 16 15 14 13 15 18 19 21 24 24 24 24 24 25 25 25 26 26 26 26 27 28 31 33 33 34 36 38 37 37 39 41 41 37 31 29 30 30 30 34 40 41 39 38 36 35 35 35 36 36 36 35 34 32 30 30 26 21 17 16 16 15 15 15 15 15 16 16 16 16 17 18 18 19 19 18 18
19 19 19 18 19 20 20 18 16 15 15 15 17 18 18 21 25 26 26 25 24 25 25 25 26 26 26 26 27 27 29 32 35 36 37 37 38 38 39 40 40 37 32 30 31 32 32 36 40 40 38 37 37 35 34 34 35 37 36 35 34 32 31 32 31 25 19 18 17 17 17 16 16 16 16 16 15 14 15 16 18 19 21 21 21
18 18 18 17 17 18 18 17 16 14 13 16 18 18 17 20 23 26 28 28 26 25 25 25 25 26 26 26 26 27 27 29 34 37 38 38 38 38 39 39 39 39 38 35 32 30 31 35 39 39 38 38 37 35 34 33 34 35 34 33 32 32 32 33 32 26 21 19 19 19 19 18 18 18 18 19 18 17 17 18 19 21 22 23 24
20 18 17 17 18 17 17 17 17 15 13 15 18 18 18 19 21 22 26 28 28 27 26 27 27 28 27 27 26 26 26 26 30 34 37 38 38 39 39 39 39 40 42 41 37 32 32 35 37 38 38 37 36 35 35 35 34 33 33 31 31 33 34 34 31 25 21 20 19 20 20 19 20 22 23 23 22 20 18 17 18 21 24 24 23
20 19 18 17 18 18 18 17 17 16 14 14 17 19 19 19 19 20 23 26 28 27 27 28 29 29 29 29 28 26 24 24 26 29 32 36 38 39 39 40 40 40 42 43 42 39 37 37 37 37 38 38 37 37 36 36 34 33 32 31 32 34 34 34 30 25 21 21 20 20 21 20 21 22 22 20 18 16 15 15 16 19 22 20 18
19 19 19 18 17 17 17 17 17 17 15 14 16 19 20 20 19 20 22 24 26 27 28 29 28 28 29 29 28 27 25 24 24 25 26 30 36 38 38 39 40 41 42 45 45 43 41 40 39 39 38 38 38 38 37 35 34 33 33 33 34 34 34 34 32 29 25 23 21 21 20 19 19 18 16 16 16 14 14 16 16 17 18 16 15
18 18 19 19 17 16 17 17 17 17 15 14 15 18 20 20 20 21 23 24 25 27 28 28 27 27 27 26 25 25 24 24 26 26 25 26 31 37 39 40 41 42 44 45 44 43 43 41 38 38 39 37 35 34 33 32 33 34 34 33 34 35 35 34 32 28 24 22 21 21 20 18 18 18 17 17 17 16 16 17 17 18 18 16 16
18 18 18 19 19 17 16 17 18 17 16 15 16 18 21 21 22 23 24 25 26 27 28 28 27 27 26 25 24 22 22 26 32 34 32 31 33 36 39 41 43 43 43 42 40 41 42 38 32 30 32 31 28 26 25 26 27 30 32 33 33 33 33 33 32 29 25 23 23 22 21 20 19 18 18 18 19 18 18 18 17 18 17 16 17
19 18 16 17 18 18 17 18 18 18 17 18 18 20 22 23 24 26 28 29 30 30 31 31 32 30 27 26 26 25 28 34 39 37 35 36 37 38 38 38 39 40 39 37 35 35 35 32 28 26 26 25 25 24 22 22 23 24 27 30 31 31 29 29 30 29 28 29 29 25 21 21 20 19 19 20 19 20 20 19 18 19 19 17 17
19 18 16 17 19 20 21 21 21 20 19 19 20 22 23 24 25 27 29 31 33 35 36 37 38 38 36 35 33 30 32 37 39 36 34 35 35 36 37 37 37 37 35 33 34 33 29 26 26 27 25 23 24 23 22 21 22 22 22 24 27 29 28 27 28 29 30 32 31 27 22 22 21 21 22 22 20 21 22 19 18 20 19 16 17
18 18 18 18 19 21 22 23 24 24 21 20 22 23 23 23 25 27 28 28 30 33 35 36 38 40 42 44 43 39 37 36 36 35 36 36 34 33 34 35 35 35 33 30 32 32 28 25 24 24 23 23 23 22 22 22 22 22 21 21 23 26 30 32 33 34 33 31 28 25 23 24 23 22 23 23 22 23 22 19 18 19 18 17 18
19 20 20 19 20 22 23 24 26 26 24 23 23 22 20 20 22 25 25 25 27 29 30 33 34 36 39 42 45 46 44 41 37 35 34 34 34 34 31 30 31 33 32 31 30 27 24 23 24 23 22 22 21 21 22 23 23 21 21 23 24 26 33 38 37 35 34 30 26 23 22 23 24 22 22 24 24 23 22 19 18 19 18 18 19
21 22 23 22 23 25 26 27 27 26 25 24 23 22 21 22 22 23 23 24 26 27 28 28 29 29 32 35 39 44 46 45 43 41 36 32 31 32 30 28 29 31 32 34 31 25 21 22 23 22 21 21 21 21 21 22 23 23 23 26 27 28 32 35 33 30 28 25 23 23 23 22 23 22 23 25 25 23 22 20 19 19 19 19 21
22 23 24 23 23 24 25 26 27 26 25 25 25 23 23 24 25 24 24 24 25 26 28 27 25 25 26 28 30 35 39 41 43 44 41 35 30 27 27 27 28 29 32 34 32 27 23 22 23 23 24 23 23 24 24 23 23 24 26 27 27 28 29 28 25 24 23 21 21 23 23 22 23 23 23 25 25 23 21 22 23 23 22 21 21
21 22 23 23 23 23 23 24 26 26 25 26 26 25 24 25 25 24 24 25 26 28 29 28 25 24 26 26 25 26 29 33 36 38 38 37 32 28 28 28 27 28 32 36 37 33 29 26 24 24 26 28 27 27 28 27 25 27 28 28 26 25 25 24 23 22 22 22 22 23 23 22 23 24 23 23 23 22 22 25 28 27 23 20 21
21 21 21 22 23 23 22 23 25 26 27 28 28 27 25 25 24 23 23 25 25 26 28 27 24 23 24 24 23 21 22 26 29 29 30 31 31 31 31 31 28 27 31 36 39 38 35 34 31 26 25 27 29 29 28 27 27 30 32 32 30 27 24 24 24 22 22 23 24 24 24 23 23 23 23 23 22 20 20 24 28 28 26 24 24
22 22 23 24 23 22 22 22 22 23 25 27 27 25 23 23 23 23 24 25 25 25 27 27 25 23 22 20 17 16 17 19 21 22 24 26 29 31 32 31 27 28 32 37 41 41 41 40 37 31 27 26 28 29 27 25 27 32 35 35 34 32 30 28 26 24 24 26 26 25 24 23 23 22 22 21 21 20 19 22 24 24 24 26 27
21 22 24 24 22 20 21 20 20 21 23 24 23 22 22 22 22 22 24 24 24 25 25 24 23 22 21 18 14 12 13 14 16 18 21 24 28 32 34 30 27 27 31 35 39 41 42 39 37 36 35 32 32 33 32 27 27 31 35 35 31 28 27 26 25 25 28 30 26 23 23 23 22 21 21 20 20 19 19 20 22 22 21 23 26
20 22 22 20 18 19 20 20 20 21 22 22 21 20 21 21 22 23 23 24 24 25 24 23 22 21 19 17 15 13 13 15 16 16 16 19 24 29 32 31 29 27 28 31 34 36 36 35 35 37 39 39 38 39 38 35 32 33 33 31 27 23 23 24 24 27 30 30 26 24 23 22 20 20 21 21 20 19 19 21 25 26 26 26 26
21 21 19 17 16 17 19 19 18 18 18 20 20 20 20 21 23 25 25 24 25 25 24 24 24 22 20 17 15 15 15 16 18 18 17 18 22 26 30 32 32 30 27 26 29 31 30 31 33 37 38 39 40 40 37 37 36 34 30 26 24 23 23 23 24 27 28 25 23 22 22 20 19 19 19 19 19 20 21 23 25 28 29 28 24
21 19 16 14 14 15 15 15 14 13 14 16 17 18 19 20 21 23 24 23 24 24 24 24 24 23 20 18 16 15 15 16 17 18 19 20 23 26 29 32 33 32 30 28 28 30 31 31 33 35 36 37 38 38 35 33 32 29 25 24 24 24 23 23 25 27 26 23 23 24 23 22 21 21 20 20 21 23 24 24 23 24 23 20 17
19 16 14 13 12 11 11 11 11 11 12 14 16 17 18 18 19 21 22 22 23 23 23 23 23 22 20 18 16 15 15 16 17 17 18 19 20 22 24 25 26 27 29 31 31 32 33 33 33 34 35 36 37 36 34 33 32 27 24 24 26 26 26 26 26 26 24 23 23 24 23 22 22 23 24 23 23 23 23 22 23 23 21 19 19
15 13 11 11 10 8 9 9 10 11 12 13 14 16 15 15 16 18 19 19 20 20 21 22 22 21 20 18 16 15 15 15 16 17 18 18 19 19 20 21 21 22 25 29 31 32 32 33 33 34 35 37 37 36 34 34 34 31 29 29 30 31 31 30 29 28 28 27 24 22 21 21 22 24 26 26 24 23 23 24 26 25 23 22 22
12 10 9 8 7 7 7 8 9 11 11 11 12 12 11 11 12 15 16 15 15 15 15 16 16 15 12 11 10 10 10 10 10 11 12 13 14 14 15 17 18 19 20 22 24 26 28 29 29 31 33 35 36 36 35 33 33 33 34 36 34 32 31 33 34 33 30 26 21 19 20 22 23 25 26 26 24 21 21 24 26 25 22 22 23
10 9 6 5 7 7 7 8 9 9 9 9 9 9 8 8 9 11 12 11 9 7 6 6 5 4 4 5 6 6 6 7 6 6 5 5 5 6 7 8 10 11 12 14 16 18 20 21 22 23 25 27 29 30 30 29 30 32 34 36 36 33 31 30 28 24 20 16 15 17 21 22 23 24 25 25 24 22 21 24 26 25 25 24 23
7 6 5 5 6 6 6 7 8 8 8 8 7 7 7 6 6 7 7 6 4 3 2 2 4 6 7 8 8 9 8 8 7 7 6 5 4 3 2 2 3 4 5 7 9 10 12 13 13 13 15 16 18 19 21 22 24 26 29 32 33 33 30 25 19 15 13 12 14 18 20 20 20 19 19 20 21 22 23 24 25 25 26 25 23
5 5 5 5 4 3 4 6 7 6 6 6 5 4 4 4 4 5 5 5 6 6 6 7 7 9 10 10 10 11 11 11 12 12 11 10 10 9 8 7 6 5 4 3 3 3 4 5 6 6 7 8 9 10 11 13 15 18 20 23 24 23 21 19 16 14 13 14 16 18 20 21 21 21 20 20 21 23 24 24 25 25 25 25 25
4 4 4 3 2 2 2 4 4 4 4 3 2 2 3 3 5 5 6 6 7 8 9 9 9 10 11 12 11 12 13 14 15 15 15 15 15 14 13 13 13 12 11 11 10 9 8 8 8 7 7 7 7 8 8 8 9 10 11 13 14 15 16 16 15 15 16 19 21 22 23 24 25 26 25 26 27 28 28 28 27 28 28 28 27
5 4 3 2 2 1 0 1 2 2 1 1 1 3 4 5 6 7 8 8 9 11 12 13 12 12 13 13 13 14 15 16 17 18 18 19 19 19 20 20 20 20 20 20 20 20 20 19 19 17 16 16 16 16 16 16 16 16 15 15 15 16 16 17 17 18 20 22 24 26 28 30 31 31 30 29 29 30 30 28 27 27 27 26 25
8 7 4 3 3 3 2 2 1 2 3 4 5 6 6 6 7 9 10 11 12 12 13 14 14 14 14 14 14 15 17 18 18 19 21 23 24 26 28 29 29 29 29 29 29 30 30 30 30 29 29 28 28 27 27 26 25 23 22 22 21 21 21 21 22 23 25 27 29 30 30 32 33 32 31 30 29 28 28 27 25 25 25 25 25
Wind_Direction
201 204 204 205 210 215 217 219 222 223 225 228 229 231 232 234 235 235 236 238 238 240 242 244 243 243 245 245 246 248 248 244 240 239 239 240 242 243 245 248 247 247 250 252 254 258 263 265 265 269 274 275 275 274 273 272 268 267 266 265 265 266 264 258 273 291 294 293 302 307 318 328 333 345 351 351 356 5 12 11 8 10 12 14 9
202 204 205 206 210 214 214 217 220 221 222 225 228 230 233 235 235 234 236 237 238 238 240 242 243 243 245 247 249 252 254 252 246 243 243 243 244 244 246 249 248 249 252 253 255 257 262 265 265 268 274 275 274 270 266 264 261 260 259 258 259 259 264 266 268 286 294 295 301 304 313 325 327 336 345 348 356 6 14 14 10 14 18 21 17
207 206 207 209 211 212 211 212 217 219 218 220 224 227 230 233 234 234 234 235 236 238 239 241 243 243 245 248 251 253 255 256 252 248 248 248 247 246 246 250 250 250 252 254 257 258 262 265 265 263 268 272 273 269 263 260 260 262 260 259 262 260 264 270 267 275 289 295 300 302 306 315 320 329 339 346 354 3 13 18 15 20 25 25 24
221 214 211 212 212 210 209 210 213 214 215 217 220 222 224 228 233 234 232 231 235 238 238 239 242 244 245 247 250 252 254 255 253 251 251 251 251 250 249 250 251 251 253 255 257 259 261 264 264 262 265 269 269 265 263 263 262 263 263 262 264 262 260 268 269 269 280 289 294 297 303 309 314 324 334 341 347 353 10 22 22 23 27 24 16
215 216 215 216 214 212 211 211 211 212 213 216 219 220 218 220 230 234 230 228 233 237 238 238 240 241 243 245 248 251 253 254 254 253 253 253 253 252 252 252 253 254 256 258 259 260 262 263 264 264 265 266 266 262 260 264 264 263 262 261 262 263 263 268 271 269 271 280 288 293 300 305 310 319 327 334 337 339 1 20 23 21 21 21 11
209 212 212 213 215 214 213 212 211 212 214 216 217 218 217 217 224 231 231 229 232 235 237 238 239 240 241 242 246 249 251 252 253 254 254 254 254 254 254 255 257 259 261 262 262 262 263 265 266 266 264 263 262 260 260 264 264 262 262 263 261 264 267 268 269 269 267 272 281 288 292 297 302 310 317 325 329 327 338 3 15 17 13 10 6
215 217 213 213 214 214 214 213 212 213 214 217 218 217 218 218 219 225 230 232 232 233 235 238 241 241 241 242 244 247 249 250 251 253 253 253 255 255 255 255 257 260 262 264 263 262 263 265 265 264 265 265 263 261 262 263 262 262 263 264 263 263 266 265 264 266 266 269 275 280 285 289 292 298 307 319 325 322 323 334 347 5 7 1 351
218 218 215 215 215 216 216 214 214 215 216 219 221 219 218 219 219 222 227 231 232 233 234 237 240 242 242 244 245 246 247 247 248 250 251 251 253 254 255 256 256 257 261 263 263 262 263 264 263 262 264 266 266 265 263 261 261 263 263 263 262 261 260 261 261 262 263 267 271 275 279 283 285 290 299 311 315 306 309 320 315 322 346 351 340
219 218 215 214 216 216 216 214 215 218 220 223 226 224 221 222 223 224 228 232 233 232 233 235 238 241 242 244 246 245 245 246 246 247 248 248 249 251 253 254 255 256 259 261 262 262 263 263 262 262 263 266 268 268 267 264 262 261 260 261 262 259 255 254 255 257 258 262 267 270 274 275 275 279 283 288 294 297 305 310 301 303 322 330 321
224 220 218 216 216 217 219 220 221 222 224 227 229 229 226 225 226 228 230 232 233 233 234 234 234 237 240 243 244 244 244 246 247 248 248 248 249 249 250 252 254 255 256 259 260 261 262 263 263 264 267 269 270 268 267 266 264 261 259 258 258 256 251 248 249 250 252 257 261 264 267 269 269 272 278 283 288 293 298 295 288 296 311 314 306
261 232 226 221 217 219 222 224 224 226 229 230 230 230 229 225 227 230 231 231 232 233 233 234 234 234 235 239 241 241 243 246 248 250 250 249 248 247 248 251 253 253 254 256 258 260 260 262 263 264 267 270 270 269 268 266 263 263 261 258 256 254 248 245 246 247 248 253 257 259 261 264 266 268 276 283 285 284 285 283 279 284 295 302 302
339 288 246 231 222 221 224 224 224 227 229 229 229 230 228 226 228 230 229 229 230 230 230 232 234 232 231 233 235 237 241 247 249 250 251 251 249 247 247 249 250 251 252 253 256 258 258 259 258 258 263 267 268 267 268 268 264 263 263 261 260 257 253 249 248 247 247 251 255 255 256 262 265 265 269 279 284 284 282 274 268 271 276 282 288
355 348 300 257 235 227 224 223 224 226 228 229 229 229 227 227 228 228 227 227 228 229 229 229 232 232 229 230 232 233 239 245 249 250 251 251 251 248 247 247 248 249 251 253 254 256 257 258 257 256 260 265 265 263 263 266 266 265 264 263 261 259 257 254 253 251 251 252 256 257 255 257 262 265 272 281 283 280 277 272 268 266 266 270 278
356 0 349 312 260 235 227 224 224 226 229 229 228 227 226 228 228 226 225 224 225 230 230 227 230 233 231 231 233 234 236 243 247 249 250 250 250 249 247 248 249 249 251 252 254 255 257 258 257 258 261 263 265 264 262 261 264 265 264 263 262 262 260 258 256 255 253 252 253 257 259 259 265 272 279 282 281 277 272 271 272 270 266 271 279
356 359 360 355 325 259 235 230 227 227 229 228 227 226 227 229 229 225 222 221 225 231 231 227 229 234 234 232 233 235 238 241 245 248 249 249 249 247 246 246 248 249 251 253 254 255 257 257 257 258 260 261 263 263 261 258 258 258 258 260 261 262 262 261 259 258 256 255 254 256 261 264 269 276 279 277 278 280 279 276 273 274 274 275 280
358 356 355 356 350 334 279 246 235 230 228 225 225 225 226 230 231 227 224 224 226 230 230 228 229 233 234 232 232 235 240 242 243 245 248 248 246 245 244 245 246 247 249 252 254 255 256 256 256 257 259 261 263 263 261 257 253 250 250 253 255 256 258 261 264 263 260 260 260 260 261 264 268 273 275 272 273 277 281 279 272 267 269 269 273
353 350 348 346 344 339 329 302 265 243 231 224 223 225 226 230 231 228 224 225 227 227 227 228 229 231 232 232 232 236 241 243 243 244 247 246 243 241 241 242 243 245 247 250 251 254 255 255 255 255 257 260 262 263 263 259 252 247 247 249 250 251 254 259 265 267 264 262 263 264 265 266 267 269 270 270 270 269 267 267 262 259 260 261 266
347 342 337 337 339 338 329 320 308 279 251 236 230 228 228 229 229 226 224 227 229 230 230 230 231 231 230 231 234 237 241 244 245 245 246 244 241 239 239 240 241 243 246 248 249 251 254 255 255 254 255 258 260 261 261 258 252 248 245 246 249 250 253 254 257 263 265 265 266 265 266 266 265 266 266 266 270 268 261 259 261 260 258 259 267
341 336 333 331 333 335 330 319 311 297 276 257 246 238 234 231 228 224 226 229 231 233 234 233 233 233 233 233 236 239 241 243 245 246 247 244 240 238 238 237 238 240 243 244 246 248 252 255 255 253 254 256 257 258 258 255 251 248 244 243 246 248 252 253 252 252 255 260 266 268 269 269 268 268 268 266 267 266 259 259 261 256 254 259 267
332 331 332 331 327 326 325 319 310 297 280 271 264 252 241 236 231 227 227 231 234 235 235 234 236 237 236 236 237 239 240 241 243 247 248 245 241 239 236 234 236 239 239 239 240 243 247 252 254 254 254 254 254 255 255 253 251 249 244 239 242 247 252 254 255 255 250 250 259 265 268 270 269 267 267 267 266 263 258 257 254 248 248 256 262
327 327 328 327 324 322 320 315 305 294 283 275 274 268 255 243 236 231 230 232 234 234 234 235 237 240 240 239 238 238 240 241 242 246 248 247 243 239 235 235 237 238 237 237 237 239 242 247 252 253 253 253 253 253 253 253 252 250 245 243 246 253 258 258 258 260 257 251 253 258 259 261 261 257 256 257 258 258 259 259 255 248 246 251 259
322 324 324 323 322 322 320 315 305 300 297 285 270 265 258 247 239 234 232 231 230 231 232 233 237 240 242 241 240 239 241 243 243 244 247 248 245 240 237 238 239 236 234 235 236 237 239 244 249 252 253 253 255 254 254 254 253 250 249 250 254 257 261 261 261 261 258 255 255 256 254 252 251 250 247 245 244 245 250 256 259 255 250 250 255
316 319 320 318 317 318 317 314 308 306 305 293 276 266 259 251 244 238 233 230 229 229 230 231 235 240 242 242 241 239 240 244 245 245 246 247 246 243 241 242 240 235 232 234 236 236 239 243 249 252 253 254 256 256 255 254 253 252 252 253 256 258 260 261 261 258 256 258 258 258 258 255 253 251 247 247 245 239 241 253 263 264 259 257 259
313 314 314 313 313 314 312 307 305 304 303 295 287 280 270 262 254 243 236 233 231 230 231 232 233 237 239 241 242 240 239 242 246 247 246 246 246 245 245 245 242 237 235 236 237 236 238 243 249 253 255 256 256 257 257 256 255 254 255 255 256 257 256 256 256 255 255 256 255 257 258 256 252 251 251 254 256 254 255 261 263 262 260 259 260
310 309 308 308 310 311 308 304 301 300 298 291 284 277 267 261 256 246 238 236 234 233 235 236 237 238 240 240 241 240 238 238 242 246 247 246 246 246 246 246 244 240 237 238 239 239 240 245 250 255 256 258 258 257 256 256 256 256 256 256 255 253 252 251 252 251 251 252 252 253 253 250 251 259 266 268 266 263 262 261 258 259 260 258 256
305 305 303 301 305 308 306 302 298 297 296 291 284 276 267 259 255 250 244 240 238 236 236 238 238 240 242 243 243 242 238 235 237 241 244 245 245 246 246 246 246 244 241 241 243 243 244 246 250 254 256 257 256 255 254 256 257 257 255 253 251 249 248 247 246 244 243 246 247 247 248 248 254 263 270 270 264 259 256 253 252 255 256 250 245
296 300 299 297 299 303 303 299 295 295 297 295 289 281 270 260 257 256 251 245 242 239 238 239 239 239 241 243 244 243 239 236 236 236 236 239 242 243 242 243 244 243 241 241 243 243 244 246 248 251 254 255 255 254 254 255 254 254 252 250 247 247 246 245 245 244 242 243 245 246 248 252 255 258 260 258 256 253 248 247 248 249 247 241 236
289 292 295 295 295 297 299 295 291 291 292 290 286 281 272 263 258 255 251 248 247 244 241 239 237 236 237 238 239 239 236 234 235 233 228 229 237 240 240 240 239 238 237 238 240 241 243 245 246 247 249 250 250 249 248 248 248 249 250 249 247 248 248 246 244 243 241 241 245 248 250 253 254 253 252 252 254 251 245 242 244 245 241 235 232
286 286 289 291 291 293 297 294 289 288 290 289 282 277 272 266 261 258 254 251 249 250 251 249 244 239 237 235 232 230 229 234 241 241 236 234 236 239 240 240 239 239 240 240 239 239 240 239 240 241 241 241 242 240 237 237 239 242 244 245 245 245 244 242 240 239 237 236 238 241 244 246 247 247 249 252 254 251 243 237 238 239 233 227 227
286 285 284 286 289 294 296 293 288 286 288 290 288 284 278 271 266 262 260 258 255 254 256 257 255 253 251 247 239 232 234 243 250 251 246 243 243 243 245 245 244 245 246 242 236 234 235 234 233 234 235 234 234 234 230 227 228 231 235 238 239 239 238 237 237 237 237 238 239 237 236 239 242 246 252 254 252 247 241 235 232 232 228 220 220
280 281 280 283 289 294 295 294 290 286 285 285 286 287 286 281 274 269 267 268 268 264 260 258 256 255 255 255 253 250 248 252 256 256 253 250 249 247 248 249 249 249 248 240 229 226 228 230 231 232 232 231 232 232 231 228 227 227 228 230 234 235 233 232 235 237 237 239 240 237 234 238 244 248 251 251 246 241 239 233 226 226 225 218 215
270 272 274 278 285 289 290 289 286 283 283 283 281 281 282 283 282 280 277 276 277 275 270 264 259 256 254 253 253 254 255 256 258 257 255 253 252 251 249 249 249 249 246 237 228 225 225 227 230 231 230 229 231 232 231 231 231 230 228 227 229 232 234 237 240 240 239 238 237 235 236 239 241 242 243 242 238 234 231 224 219 221 222 218 217
265 268 270 272 278 282 283 282 279 277 276 277 277 277 277 278 284 288 288 286 284 282 278 272 267 262 258 254 252 251 252 254 255 255 253 252 252 252 251 250 248 246 240 231 226 224 223 226 230 232 230 229 231 231 230 233 234 232 230 230 231 235 241 246 246 242 240 239 237 236 237 236 234 234 235 234 231 228 225 222 221 222 221 218 219
265 267 268 269 273 278 279 277 275 273 273 274 276 280 283 284 286 290 292 291 289 286 283 279 274 270 264 259 255 252 251 251 251 251 251 251 251 251 250 245 242 239 234 228 225 223 223 226 229 231 231 231 231 231 230 232 233 232 233 237 238 240 244 248 245 240 238 237 234 233 233 231 228 228 230 230 228 226 226 224 220 220 218 217 220
267 268 268 268 270 273 274 273 272 273 275 277 279 282 283 285 286 286 285 287 288 286 284 281 279 277 274 268 261 257 255 254 252 251 249 248 248 247 241 234 230 229 227 226 225 224 225 226 227 228 230 230 231 232 234 234 235 236 238 241 242 242 243 243 240 235 233 231 230 230 231 229 227 226 227 228 226 222 222 222 221 220 219 217 220
266 266 267 269 271 272 272 272 273 276 279 281 281 281 281 281 281 280 279 279 279 279 279 280 279 279 276 273 269 267 264 260 257 254 250 247 244 238 229 224 223 223 223 225 226 226 225 227 227 227 230 233 233 235 238 239 238 240 242 242 240 240 240 239 236 234 232 231 231 231 229 228 227 226 225 225 222 219 219 222 223 223 220 217 220
263 262 264 269 272 272 271 271 273 278 282 283 281 280 279 277 276 276 275 274 272 271 272 275 277 276 274 272 271 269 266 263 260 255 250 244 238 233 228 224 222 221 223 227 228 227 228 230 231 229 231 234 236 237 239 238 239 242 246 247 244 242 241 241 238 235 232 232 233 232 229 228 227 224 222 222 221 219 220 222 224 224 222 219 219
261 262 266 269 271 270 270 272 275 278 281 281 278 276 275 275 274 273 273 272 270 269 268 268 268 267 267 268 267 261 257 254 250 246 241 235 229 226 225 225 224 224 227 231 232 232 232 233 233 232 232 233 236 238 237 235 237 242 246 248 247 246 246 245 243 239 235 235 235 232 228 226 225 223 222 223 223 222 221 220 221 223 223 220 218
261 265 268 268 268 269 271 273 275 275 275 276 276 275 275 275 274 273 273 273 270 267 266 264 263 261 261 260 252 241 235 233 230 229 229 226 225 223 222 222 224 227 228 231 234 234 233 233 233 234 235 235 236 238 237 235 238 242 245 246 245 243 241 241 242 243 241 238 235 230 226 224 222 221 220 222 224 224 221 218 218 220 221 220 218
264 267 268 265 266 270 274 272 270 269 270 272 275 276 275 275 275 274 274 274 272 269 266 264 262 263 262 258 250 242 237 235 234 230 222 219 223 225 224 222 224 226 227 229 232 233 232 232 233 235 236 237 237 239 239 239 241 245 247 246 243 240 239 240 244 247 245 240 233 230 228 225 220 219 221 222 224 223 221 220 221 222 223 224 222
266 266 265 264 267 273 274 270 266 265 267 271 274 276 275 275 275 274 272 271 270 270 268 265 264 265 265 261 257 254 250 247 247 243 235 230 231 232 230 228 228 228 228 229 230 231 230 230 233 236 239 240 240 239 238 239 241 244 246 244 241 242 243 242 242 245 244 238 230 228 227 224 221 221 220 221 223 226 226 225 225 225 227 228 224
265 265 264 267 271 272 271 269 266 266 269 272 274 275 274 275 275 274 270 268 268 269 269 267 267 266 265 262 259 256 251 248 248 247 244 242 241 240 241 239 236 234 233 232 231 232 232 232 235 238 241 243 242 239 237 238 239 241 243 244 241 239 238 239 240 240 237 232 227 226 226 225 225 223 220 221 225 227 227 225 223 223 225 223 212
263 263 265 270 271 268 266 268 268 270 272 272 273 274 274 275 275 274 271 269 268 268 267 267 267 266 263 259 257 254 248 244 244 244 244 244 242 242 244 244 240 238 238 237 235 235 236 236 237 239 242 246 245 241 238 239 240 241 242 242 242 241 240 240 240 238 232 227 227 227 227 226 224 222 222 224 225 224 220 215 212 213 211 204 196
262 265 267 269 269 265 265 267 269 270 271 272 274 274 274 275 276 275 273 272 270 268 266 266 266 266 262 256 252 249 244 240 238 237 237 238 238 237 237 237 237 237 238 238 236 236 237 238 240 241 243 246 248 245 244 244 244 243 241 240 241 244 244 240 236 234 231 228 225 225 225 224 222 222 224 224 221 216 210 205 202 201 198 191 188
266 267 267 268 267 266 265 267 269 271 272 274 276 278 279 282 284 281 279 277 275 273 270 267 265 263 257 244 237 235 229 221 219 219 220 223 227 228 228 230 232 234 235 235 235 236 238 240 241 242 242 244 247 247 248 246 244 243 243 243 243 245 244 241 240 239 236 230 224 225 227 225 222 222 222 220 216 208 199 195 193 190 184 180 178
259 254 252 262 265 265 268 271 271 273 275 276 279 285 293 297 296 293 291 290 287 283 279 267 247 221 189 173 170 170 168 167 170 175 177 185 202 213 219 222 224 226 228 228 230 233 235 236 237 239 239 240 241 243 243 243 241 240 241 244 247 249 250 249 247 241 232 223 223 229 230 226 221 219 216 211 205 196 186 182 182 179 177 176 173
244 235 238 251 259 262 270 276 276 277 278 278 282 295 306 310 310 307 309 318 336 352 8 50 95 109 115 120 124 125 128 129 121 113 106 102 100 105 127 171 195 205 214 219 221 224 227 230 232 234 234 234 234 235 235 235 235 234 235 238 242 245 247 245 237 222 211 211 218 221 217 209 201 197 194 190 185 177 170 167 168 169 171 170 165
224 228 234 239 247 262 272 277 279 280 282 282 292 311 325 340 355 350 348 7 30 45 54 61 71 81 87 91 95 99 103 105 102 96 92 88 86 85 84 83 87 96 106 123 154 176 188 197 198 198 200 204 209 213 215 217 220 223 225 227 229 230 229 225 216 203 196 196 196 196 192 184 175 169 164 161 157 153 148 147 148 151 151 148 145
201 207 213 215 219 243 263 272 276 278 279 283 307 345 5 27 41 41 38 41 49 58 64 66 69 75 78 79 81 86 89 92 92 90 89 89 87 87 87 85 82 81 83 83 83 87 93 100 109 119 131 139 144 148 151 156 165 176 185 191 195 197 197 196 193 186 178 174 171 170 168 161 154 149 147 145 142 139 135 133 133 133 133 131 131
156 144 158 174 165 152 197 266 262 253 224 126 96 82 73 68 65 62 60 61 64 69 72 74 76 78 77 77 80 83 86 87 88 87 88 90 90 91 91 88 84 82 81 81 81 82 84 85 86 89 94 99 103 106 108 111 115 121 129 139 150 157 159 159 158 157 157 155 152 151 149 144 137 133 130 128 126 125 123 122 122 122 121 120 119
122 108 109 119 116 108 104 108 123 123 113 108 104 96 89 82 78 76 75 74 73 73 75 77 78 79 79 79 82 84 86 88 89 87 87 89 92 94 93 89 86 84 82 80 80 81 81 80 79 79 81 85 88 91 94 96 100 105 111 117 121 125 128 129 130 132 136 136 133 132 131 128 125 122 120 118 116 115 114 113 113 112 110 108 105